Regional Weather Roundup
Issued by NWS

Home | Current Version | Previous Version | Text Only | Print | Product List | Glossary On
Versions: 1 2 3 4 5 6 7 8 9 10 11 12 13 14 15 16 17 18 19 20 21 22 23 24 25 26 27 28 29 30 31 32 33 34 35 36 37 38 39 40 41 42 43 44 45 46 47 48 49 50
000
ASUS43 KMKX 271400
RWRWI

WISCONSIN REGIONAL WEATHER ROUNDUP
NATIONAL WEATHER SERVICE MILWAUKEE/SULLIVAN WI
900 AM CDT THU JUL 27 2017

NOTE: "FAIR" INDICATES FEW OR NO CLOUDS BELOW 12,000 FEET WITH NO
SIGNIFICANT WEATHER AND/OR OBSTRUCTIONS TO VISIBILITY.

WIZ001-002-006>008-014>016-023>028-271500-
NORTHWEST WISCONSIN

CITY           SKY/WX    TMP DP  RH WIND       PRES   REMARKS
SUPERIOR ARPT  NOT AVBL
ASHLAND        SUNNY     72  62  71 NE3       30.09R
HAYWARD        SUNNY     70  61  73 N5        30.09R
SIREN          SUNNY     68  60  77 CALM      30.09R
CUMBERLAND     SUNNY     70  59  68 CALM      30.09R
RICE LAKE      SUNNY     68  62  80 N3        30.09S
CHETEK         SUNNY     68  63  82 CALM      30.08R
LADYSMITH      SUNNY     70  62  76 NE5       30.09S
EAU CLAIRE     SUNNY     72  62  71 NE5       30.05S
MENOMONIE      SUNNY     71  63  75 N3        30.07S
NEW RICHMOND   SUNNY     71  63  75 NE3       30.09R
OSCEOLA        SUNNY     68  62  80 NW3       30.11S
$$

WIZ003>005-009-010-017-018-271500-
NORTH CENTRAL WISCONSIN

CITY           SKY/WX    TMP DP  RH WIND       PRES   REMARKS
MANITOWISH WTR SUNNY     70  61  72 N5        30.10R
ARBOR VITAE    SUNNY     72  62  70 NE3       30.08R
WOODRUFF       SUNNY     72  62  70 NE3       30.08R
RHINELANDER    SUNNY     71  60  68 E5        30.09R
EAGLE RIVER    SUNNY     68  58  68 NE5       30.09R
LAND O LAKES   SUNNY     70  57  63 N6        30.11R
PHILLIPS       SUNNY     69  61  76 NE6       30.09R
TOMAHAWK         N/A     66  60  81 NE3       30.09R
MEDFORD        SUNNY     66  61  83 NE7       30.08R
MERRILL        SUNNY     68  63  83 CALM      30.08R
$$

WIZ029-030-035-036-043>047-271500-
CENTRAL WISCONSIN

CITY           SKY/WX    TMP DP  RH WIND       PRES   REMARKS
WAUSAU         SUNNY     71  60  68 N3        30.05R
MOSINEE        SUNNY     70  63  78 N6        30.07R
MARSHFIELD     SUNNY     73  60  63 NE7       30.05R
STEVENS POINT  SUNNY     68  59  73 NE5       30.05S
WAUPACA        SUNNY     73  63  71 N5        30.04R
WAUTOMA        SUNNY     73  62  68 NE8       30.03S
WISC RAPIDS    SUNNY     73  62  68 SE5       30.06R
CAMP DOUGLAS   NOT AVBL
$$

WIZ011>013-019>022-031-037>040-048>050-271500-
NORTHEAST WISCONSIN

CITY           SKY/WX    TMP DP  RH WIND       PRES   REMARKS
ANTIGO         SUNNY     69  61  76 NE5       30.08R
SHAWANO        SUNNY     73  61  66 NE6       30.04S
OCONTO         SUNNY     70  60  69 NE3       30.03R
STURGEON BAY     N/A     72  63  73 NE6       30.03R
GREEN BAY      SUNNY     74  65  73 NE12      30.02S
MANITOWOC      NOT AVBL
APPLETON       SUNNY     70  63  78 N8        30.01S
CLINTONVILLE   SUNNY    N/A N/A N/A NE6       30.03S
OSHKOSH        SUNNY     73  61  65 NE9       30.01S
$$

WIZ032>034-041-042-053>061-271500-
SOUTHWEST WISCONSIN

CITY           SKY/WX    TMP DP  RH WIND       PRES   REMARKS
LA CROSSE      SUNNY     74  67  78 NW3       30.03S
SPARTA         SUNNY     68  61  77 NE3       30.05S
VIROQUA        SUNNY     72  64  75 NE6       30.05S
BOSCOBEL       SUNNY     76  66  71 VRB5      30.01S
PRAIRIE DU CHI SUNNY     74  61  62 N7        30.01R
PLATTEVILLE    MOSUNNY   73  72  99 N10       30.00S
$$

WIZ056-057-062-063-064-067-068-271500-
SOUTH CENTRAL WISCONSIN

CITY           SKY/WX    TMP DP  RH WIND       PRES   REMARKS
REEDSBURG      SUNNY     72  64  75 NE9       30.03R
BARABOO/DELLS  SUNNY     70  62  75 CALM      30.02S
LONE ROCK      NOT AVBL
MINERAL POINT  MOSUNNY   72  70  94 NE8       30.01S
MADISON        SUNNY     74  66  76 NE9       29.99S
MIDDLETON      SUNNY     74  70  87 NE3       30.01S
WATERTOWN      SUNNY     73  70  91 NE9       29.99R
MONROE         CLOUDY    72  68  88 N10       29.99R
JANESVILLE     CLOUDY    73  73 100 N12       29.97R
$$

WIZ051-052-058>065-066-070>072-271500-
SOUTHEAST WISCONSIN

CITY           SKY/WX    TMP DP  RH WIND       PRES   REMARKS
MILWAUKEE      MOSUNNY   74  68  81 NE13G22   29.97R
WAUKESHA       SUNNY     72  63  73 NE12G17   30.00R
MILWAUKEE/TIMM SUNNY     73  61  64 NE12G18   29.99S
RACINE         CLOUDY    70  70 100 N13       29.98R FOG
KENOSHA        CLOUDY    74  69  85 N9G17     29.96S
FOND DU LAC    SUNNY     74  58  57 NE8       30.01S
SHEBOYGAN      SUNNY     73  63  70 NE12      30.00S
WEST BEND      SUNNY     70  61  73 NE8       30.00S
JUNEAU         SUNNY     71  62  71 NE7       30.02R
$$

LSZ147-162-271500-
LAKE SUPERIOR

STATION/POSITION TIME  TEMP    WIND        PRES    WAVE
                       AIR SEA DIR/SP/G            HT/PER
                 (UTC) (F)     (DEG/KT/KT) (MB)    (FT/S)
W MID LAKE BUOY  1250   56 52   30/  8/ 10 1018.1R   0
DEVILS ISLAND    1300   65     270/  4/  5 1018.4R
PORT WING        1309   66     260/  1/  5 1018.6
SAXON HARBOR     1330   71      CALM  /  2 1018.3R
$$

LMZ867-665-643>646-271500-
LAKE MICHIGAN

STATION/POSITION TIME  TEMP    WIND        PRES    WAVE
                       AIR SEA DIR/SP/G            HT/PER
                 (UTC) (F)     (DEG/KT/KT) (MB)    (FT/S)
CHAMBERS ISLAND  1340   69      10/ 12/ 13 1016.3R
S GREEN BAY BUOY 1330   69 71   40/ 10/ 12 1016.4R
N MID LAKE BUOY  1250   65 65   10/ 12/ 16 1016.4R   1/ 5
NORTHPORT PIER   1340   68      10/  6/  9 1016.6R
KEWAUNEE LAKESHO 1330   71      10/  5/  9 1015.5R
SHEBOYGAN LAKESH 1300   69      10/ 11/ 13 1015.2R
PORT WASHINGTON  1330   74      30/ 11/ 16 1015.9S
ATWATER BUOY     1209   69 69   10/ 10/ 12 1014.9R
MILWAUKEE LAKESH 1330   70     360/ 12/ 16   N/A
S MID LAKE BUOY  1250   71 71   20/  8/ 10 1013.6F   0
KENOSHA   LAKESH 1300   69      10/ 12/ 14 1014.2
$$

TC  - TEMPERATURE IN CELSIUS
VSB - VISIBILITY IN STATUTE MILES
WCI - WIND CHILL INDEX
HX  - HEAT INDEX





USA.gov is the U.S. government's official web portal to all federal, state and local government web resources and services.